Time,TemperatureF,DewpointF,PressureIn,WindDirection,WindDirectionDegrees,WindSpeedMPH,WindSpeedGustMPH,Humidity,HourlyPrecipIn,Conditions,Clouds,dailyrainin,SoftwareType,DateUTC
2013-02-19 00:02:00,46.0,39.0,-100.00,SSW,205,9.0,17.0,78,1.10,,,-99.99,,2013-02-19 05:02:00,
2013-02-19 00:12:00,46.0,39.0,-100.00,SSW,200,4.0,12.0,78,1.10,,,-99.99,,2013-02-19 05:12:00,
2013-02-19 00:22:00,46.0,39.0,-100.00,SSW,210,6.0,15.0,77,2.24,,,-99.99,,2013-02-19 05:22:00,
2013-02-19 00:32:00,46.0,39.0,-100.00,SSW,200,5.0,14.0,78,3.39,,,-99.99,,2013-02-19 05:32:00,
2013-02-19 00:43:00,45.0,39.0,-100.00,South,180,6.0,14.0,80,0.55,,,-99.99,,2013-02-19 05:43:00,
2013-02-19 00:52:00,46.0,39.0,-100.00,SSW,205,7.0,14.0,78,0.55,,,-99.99,,2013-02-19 05:52:00,
2013-02-19 01:03:00,46.0,39.0,-100.00,SSW,205,7.0,14.0,78,0.55,,,-99.99,,2013-02-19 06:03:00,
2013-02-19 01:12:00,45.0,39.0,-100.00,South,190,9.0,17.0,80,0.55,,,-99.99,,2013-02-19 06:12:00,
2013-02-19 01:22:00,45.0,40.0,-100.00,SSW,205,6.0,12.0,81,5.08,,,-99.99,,2013-02-19 06:22:00,
2013-02-19 01:32:00,45.0,40.0,-100.00,SSW,200,7.0,13.0,82,0.00,,,-99.99,,2013-02-19 06:32:00,
2013-02-19 01:42:00,45.0,40.0,-100.00,SSW,205,9.0,16.0,82,0.00,,,-99.99,,2013-02-19 06:42:00,
2013-02-19 01:52:00,45.0,40.0,-100.00,SW,230,6.0,14.0,82,0.55,,,-99.99,,2013-02-19 06:52:00,
2013-02-19 02:02:00,45.0,40.0,-100.00,WSW,250,6.0,13.0,82,0.00,,,-99.99,,2013-02-19 07:02:00,
2013-02-19 02:11:00,45.0,40.0,-100.00,SSW,210,7.0,14.0,82,0.00,,,-99.99,,2013-02-19 07:11:00,
2013-02-19 02:22:00,45.0,39.0,-100.00,SSW,200,7.0,19.0,81,0.00,,,-99.99,,2013-02-19 07:22:00,
2013-02-19 02:32:00,45.0,39.0,-100.00,SSW,210,7.0,16.0,80,0.00,,,-99.99,,2013-02-19 07:32:00,
2013-02-19 02:42:00,45.0,39.0,-100.00,SSW,205,6.0,16.0,81,0.00,,,-99.99,,2013-02-19 07:42:00,
2013-02-19 02:52:00,45.0,39.0,-100.00,SSW,205,7.0,12.0,81,0.00,,,-99.99,,2013-02-19 07:52:00,
2013-02-19 03:02:00,45.0,39.0,-100.00,SSW,210,6.0,14.0,80,0.00,,,-99.99,,2013-02-19 08:02:00,
2013-02-19 03:11:00,45.0,39.0,-100.00,SSW,205,9.0,16.0,79,0.00,,,-99.99,,2013-02-19 08:11:00,
2013-02-19 03:21:00,46.0,39.0,-100.00,SSW,205,7.0,12.0,79,0.00,,,-99.99,,2013-02-19 08:21:00,
2013-02-19 03:32:00,45.0,40.0,-100.00,SSW,210,5.0,12.0,81,1.10,,,-99.99,,2013-02-19 08:32:00,
2013-02-19 03:42:00,45.0,40.0,-100.00,SW,215,6.0,13.0,84,0.55,,,-99.99,,2013-02-19 08:42:00,
2013-02-19 03:52:00,44.0,40.0,-100.00,SSW,205,6.0,11.0,86,1.10,,,-99.99,,2013-02-19 08:52:00,
2013-02-19 04:02:00,44.0,41.0,-100.00,SW,215,8.0,19.0,87,0.00,,,-99.99,,2013-02-19 09:02:00,
2013-02-19 04:11:00,44.0,41.0,-100.00,SSW,210,7.0,16.0,86,0.55,,,-99.99,,2013-02-19 09:11:00,
2013-02-19 04:22:00,44.0,41.0,-100.00,SW,215,6.0,12.0,88,0.00,,,-99.99,,2013-02-19 09:22:00,
2013-02-19 04:32:00,44.0,41.0,-100.00,SSW,205,4.0,12.0,88,1.69,,,-99.99,,2013-02-19 09:32:00,
2013-02-19 04:42:00,44.0,41.0,-100.00,SW,220,4.0,13.0,88,1.10,,,-99.99,,2013-02-19 09:42:00,
2013-02-19 04:52:00,44.0,41.0,-100.00,SSW,210,4.0,9.0,88,0.55,,,-99.99,,2013-02-19 09:52:00,
2013-02-19 05:02:00,44.0,41.0,-100.00,SSW,200,6.0,12.0,89,0.55,,,-99.99,,2013-02-19 10:02:00,
2013-02-19 05:11:00,44.0,41.0,-100.00,SSW,205,4.0,12.0,90,1.69,,,-99.99,,2013-02-19 10:11:00,
2013-02-19 05:22:00,44.0,41.0,-100.00,SSW,205,4.0,12.0,90,1.69,,,-99.99,,2013-02-19 10:22:00,
2013-02-19 05:32:00,38.0,35.0,-100.00,North,0,7.0,22.0,89,2.83,,,-99.99,,2013-02-19 10:32:00,
2013-02-19 05:42:00,38.0,35.0,-100.00,NNW,345,8.0,14.0,90,5.08,,,-99.99,,2013-02-19 10:42:00,
2013-02-19 05:51:00,37.0,35.0,-100.00,North,0,8.0,16.0,91,3.39,,,-99.99,,2013-02-19 10:51:00,
2013-02-19 06:01:00,36.0,34.0,-100.00,NNW,335,7.0,15.0,91,5.67,,,-99.99,,2013-02-19 11:01:00,
2013-02-19 06:11:00,35.0,33.0,-100.00,North,350,9.0,15.0,92,0.00,,,-99.99,,2013-02-19 11:11:00,
2013-02-19 06:22:00,35.0,33.0,-100.00,WNW,300,2.0,11.0,93,0.55,,,-99.99,,2013-02-19 11:22:00,
2013-02-19 06:32:00,35.0,33.0,-100.00,North,0,2.0,8.0,93,0.00,,,-99.99,,2013-02-19 11:32:00,
2013-02-19 06:42:00,35.0,33.0,-100.00,NNE,15,4.0,9.0,94,0.00,,,-99.99,,2013-02-19 11:42:00,
2013-02-19 06:52:00,35.0,34.0,-100.00,North,0,6.0,9.0,93,0.00,,,-99.99,,2013-02-19 11:52:00,
2013-02-19 07:02:00,36.0,34.0,-100.00,North,0,4.0,6.0,93,0.55,,,-99.99,,2013-02-19 12:02:00,
2013-02-19 07:12:00,35.0,33.0,-100.00,North,5,7.0,12.0,93,0.55,,,-99.99,,2013-02-19 12:12:00,
2013-02-19 07:22:00,34.0,32.0,-100.00,North,0,7.0,14.0,91,0.00,,,-99.99,,2013-02-19 12:22:00,
2013-02-19 07:32:00,34.0,31.0,-100.00,NNE,30,9.0,19.0,89,0.00,,,-99.99,,2013-02-19 12:32:00,
2013-02-19 07:42:00,34.0,31.0,-100.00,NNE,30,6.0,12.0,89,0.00,,,-99.99,,2013-02-19 12:42:00,
2013-02-19 07:52:00,33.0,30.0,-100.00,North,0,7.0,13.0,88,0.00,,,-99.99,,2013-02-19 12:52:00,
2013-02-19 08:02:00,33.0,30.0,-100.00,NNE,20,6.0,14.0,87,0.00,,,-99.99,,2013-02-19 13:02:00,
2013-02-19 08:11:00,33.0,30.0,-100.00,NNE,15,8.0,19.0,87,0.00,,,-99.99,,2013-02-19 13:11:00,
2013-02-19 08:22:00,33.0,29.0,-100.00,North,0,9.0,16.0,86,0.00,,,-99.99,,2013-02-19 13:22:00,
2013-02-19 08:32:00,33.0,29.0,-100.00,NNW,330,6.0,14.0,85,0.00,,,-99.99,,2013-02-19 13:32:00,
2013-02-19 08:42:00,33.0,28.0,-100.00,NNW,335,4.0,11.0,82,0.00,,,-99.99,,2013-02-19 13:42:00,
2013-02-19 08:52:00,33.0,28.0,-100.00,NNW,335,4.0,11.0,82,0.00,,,-99.99,,2013-02-19 13:52:00,
2013-02-19 09:02:00,33.0,27.0,-100.00,NW,315,5.0,17.0,77,0.00,,,-99.99,,2013-02-19 14:02:00,
2013-02-19 09:11:00,33.0,26.0,-100.00,NW,315,5.0,13.0,75,0.00,,,-99.99,,2013-02-19 14:11:00,
2013-02-19 09:22:00,33.0,26.0,-100.00,North,0,6.0,16.0,74,0.00,,,-99.99,,2013-02-19 14:22:00,
2013-02-19 09:33:00,33.0,25.0,-100.00,North,5,8.0,16.0,71,0.00,,,-99.99,,2013-02-19 14:33:00,
2013-02-19 09:42:00,33.0,24.0,-100.00,North,355,11.0,18.0,69,0.00,,,-99.99,,2013-02-19 14:42:00,
2013-02-19 09:52:00,33.0,24.0,-100.00,North,355,8.0,14.0,69,0.00,,,-99.99,,2013-02-19 14:52:00,
2013-02-19 10:02:00,33.0,24.0,-100.00,NW,325,7.0,15.0,68,0.00,,,-99.99,,2013-02-19 15:02:00,
2013-02-19 10:11:00,33.0,24.0,-100.00,NW,325,7.0,15.0,68,0.00,,,-99.99,,2013-02-19 15:11:00,
2013-02-19 10:21:00,33.0,24.0,-100.00,North,0,7.0,14.0,70,0.00,,,-99.99,,2013-02-19 15:21:00,
2013-02-19 10:32:00,33.0,24.0,-100.00,NNE,20,5.0,14.0,70,0.00,,,-99.99,,2013-02-19 15:32:00,
2013-02-19 10:42:00,33.0,24.0,-100.00,WSW,240,4.0,14.0,69,0.00,,,-99.99,,2013-02-19 15:42:00,
2013-02-19 10:52:00,33.0,23.0,-100.00,WNW,300,7.0,16.0,68,0.00,,,-99.99,,2013-02-19 15:52:00,
2013-02-19 11:02:00,33.0,24.0,-100.00,North,0,7.0,16.0,69,0.00,,,-99.99,,2013-02-19 16:02:00,
2013-02-19 11:11:00,33.0,24.0,-100.00,North,0,5.0,9.0,70,0.00,,,-99.99,,2013-02-19 16:11:00,
2013-02-19 11:22:00,33.0,24.0,-100.00,North,0,5.0,9.0,70,0.00,,,-99.99,,2013-02-19 16:22:00,
2013-02-19 11:32:00,33.0,23.0,-100.00,NNE,20,3.0,14.0,67,0.00,,,-99.99,,2013-02-19 16:32:00,
2013-02-19 11:42:00,33.0,23.0,-100.00,North,0,7.0,14.0,68,0.00,,,-99.99,,2013-02-19 16:42:00,
2013-02-19 11:51:00,33.0,23.0,-100.00,North,0,7.0,14.0,68,0.00,,,-99.99,,2013-02-19 16:51:00,
2013-02-19 12:01:00,33.0,23.0,-100.00,North,0,7.0,14.0,68,0.00,,,-99.99,,2013-02-19 17:01:00,
2013-02-19 12:11:00,32.0,23.0,-100.00,North,0,10.0,21.0,66,0.00,,,-99.99,,2013-02-19 17:11:00,
2013-02-19 12:21:00,32.0,20.0,-100.00,North,0,12.0,24.0,62,0.00,,,-99.99,,2013-02-19 17:21:00,
2013-02-19 12:32:00,32.0,20.0,-100.00,North,0,9.0,18.0,61,0.00,,,-99.99,,2013-02-19 17:32:00,
2013-02-19 12:42:00,32.0,20.0,-100.00,North,350,9.0,19.0,61,0.00,,,-99.99,,2013-02-19 17:42:00,
2013-02-19 12:52:00,32.0,20.0,-100.00,North,0,7.0,21.0,60,0.00,,,-99.99,,2013-02-19 17:52:00,
2013-02-19 13:02:00,32.0,20.0,-100.00,NNW,330,9.0,21.0,59,0.00,,,-99.99,,2013-02-19 18:02:00,
2013-02-19 13:11:00,32.0,19.0,-100.00,North,350,11.0,20.0,59,0.00,,,-99.99,,2013-02-19 18:11:00,
2013-02-19 13:21:00,32.0,19.0,-100.00,North,350,11.0,20.0,59,0.00,,,-99.99,,2013-02-19 18:21:00,
2013-02-19 13:32:00,33.0,20.0,-100.00,North,5,6.0,18.0,59,0.00,,,-99.99,,2013-02-19 18:32:00,
2013-02-19 13:42:00,33.0,20.0,-100.00,North,0,5.0,16.0,59,0.00,,,-99.99,,2013-02-19 18:42:00,
2013-02-19 13:51:00,33.0,20.0,-100.00,North,5,7.0,19.0,58,0.00,,,-99.99,,2013-02-19 18:51:00,
2013-02-19 14:01:00,33.0,19.0,-100.00,North,5,12.0,22.0,58,0.00,,,-99.99,,2013-02-19 19:01:00,
2013-02-19 14:11:00,33.0,20.0,-100.00,North,0,9.0,21.0,60,0.00,,,-99.99,,2013-02-19 19:11:00,
2013-02-19 14:21:00,33.0,21.0,-100.00,North,0,12.0,22.0,61,0.00,,,-99.99,,2013-02-19 19:21:00,
2013-02-19 14:32:00,32.0,20.0,-100.00,NW,310,10.0,21.0,61,0.00,,,-99.99,,2013-02-19 19:32:00,
2013-02-19 14:42:00,32.0,20.0,-100.00,NNW,330,6.0,20.0,61,0.00,,,-99.99,,2013-02-19 19:42:00,
2013-02-19 14:51:00,32.0,20.0,-100.00,North,0,9.0,17.0,62,0.00,,,-99.99,,2013-02-19 19:51:00,
2013-02-19 15:02:00,32.0,19.0,-100.00,North,0,9.0,19.0,58,0.00,,,-99.99,,2013-02-19 20:02:00,
2013-02-19 15:12:00,32.0,19.0,-100.00,NNW,340,11.0,26.0,58,0.00,,,-99.99,,2013-02-19 20:12:00,
2013-02-19 15:21:00,32.0,19.0,-100.00,North,0,9.0,26.0,58,0.00,,,-99.99,,2013-02-19 20:21:00,
2013-02-19 15:32:00,32.0,19.0,-100.00,NNW,335,6.0,13.0,57,0.00,,,-99.99,,2013-02-19 20:32:00,
2013-02-19 15:42:00,32.0,19.0,-100.00,NNE,15,9.0,19.0,58,0.00,,,-99.99,,2013-02-19 20:42:00,
2013-02-19 15:52:00,32.0,19.0,-100.00,NNE,15,9.0,19.0,58,0.00,,,-99.99,,2013-02-19 20:52:00,
2013-02-19 16:02:00,32.0,19.0,-100.00,North,0,11.0,19.0,59,0.00,,,-99.99,,2013-02-19 21:02:00,
2013-02-19 16:11:00,31.0,19.0,-100.00,NW,325,11.0,24.0,60,0.00,,,-99.99,,2013-02-19 21:11:00,
2013-02-19 16:21:00,31.0,19.0,-100.00,NNW,340,9.0,24.0,60,0.00,,,-99.99,,2013-02-19 21:21:00,
2013-02-19 16:32:00,30.0,18.0,-100.00,NNW,335,10.0,24.0,60,0.00,,,-99.99,,2013-02-19 21:32:00,
2013-02-19 16:42:00,30.0,17.0,-100.00,North,10,11.0,24.0,57,0.00,,,-99.99,,2013-02-19 21:42:00,
2013-02-19 16:51:00,30.0,16.0,-100.00,NNW,340,8.0,22.0,54,0.00,,,-99.99,,2013-02-19 21:51:00,
2013-02-19 17:02:00,30.0,15.0,-100.00,North,0,10.0,22.0,53,0.00,,,-99.99,,2013-02-19 22:02:00,
2013-02-19 17:11:00,30.0,15.0,-100.00,NNW,345,11.0,19.0,53,0.00,,,-99.99,,2013-02-19 22:11:00,
2013-02-19 17:21:00,30.0,16.0,-100.00,NNW,335,6.0,19.0,54,0.00,,,-99.99,,2013-02-19 22:21:00,
2013-02-19 17:32:00,30.0,16.0,-100.00,NNW,330,10.0,19.0,55,0.00,,,-99.99,,2013-02-19 22:32:00,
2013-02-19 17:42:00,30.0,17.0,-100.00,North,0,7.0,19.0,57,0.00,,,-99.99,,2013-02-19 22:42:00,
2013-02-19 17:52:00,30.0,15.0,-100.00,North,0,9.0,16.0,54,0.00,,,-99.99,,2013-02-19 22:52:00,
2013-02-19 18:01:00,30.0,16.0,-100.00,NNW,335,12.0,20.0,55,0.00,,,-99.99,,2013-02-19 23:01:00,
2013-02-19 18:11:00,30.0,15.0,-100.00,North,350,9.0,19.0,53,0.00,,,-99.99,,2013-02-19 23:11:00,
2013-02-19 18:21:00,30.0,15.0,-100.00,NNW,335,12.0,19.0,54,0.00,,,-99.99,,2013-02-19 23:21:00,
2013-02-19 18:32:00,29.0,15.0,-100.00,NNE,20,9.0,18.0,55,0.00,,,-99.99,,2013-02-19 23:32:00,
2013-02-19 18:42:00,29.0,16.0,-100.00,NNW,345,9.0,19.0,57,0.00,,,-99.99,,2013-02-19 23:42:00,
2013-02-19 18:52:00,29.0,16.0,-100.00,NW,325,11.0,21.0,57,0.00,,,-99.99,,2013-02-19 23:52:00,
2013-02-19 19:01:00,29.0,16.0,-100.00,NNE,20,7.0,24.0,56,0.00,,,-99.99,,2013-02-20 00:01:00,
2013-02-19 19:11:00,29.0,15.0,-100.00,North,0,7.0,13.0,54,0.00,,,-99.99,,2013-02-20 00:11:00,
2013-02-19 19:21:00,29.0,15.0,-100.00,North,10,9.0,16.0,55,0.00,,,-99.99,,2013-02-20 00:21:00,
2013-02-19 19:32:00,29.0,13.0,-100.00,NNE,20,10.0,19.0,52,0.00,,,-99.99,,2013-02-20 00:32:00,
2013-02-19 19:42:00,29.0,13.0,-100.00,North,0,9.0,19.0,51,0.00,,,-99.99,,2013-02-20 00:42:00,
2013-02-19 19:52:00,29.0,13.0,-100.00,North,0,9.0,19.0,51,0.00,,,-99.99,,2013-02-20 00:52:00,
2013-02-19 20:02:00,28.0,13.0,-100.00,NNE,20,8.0,16.0,53,0.00,,,-99.99,,2013-02-20 01:02:00,
2013-02-19 20:11:00,28.0,15.0,-100.00,NNE,25,13.0,21.0,56,0.55,,,-99.99,,2013-02-20 01:11:00,
2013-02-19 20:21:00,28.0,15.0,-100.00,NNE,25,9.0,19.0,59,0.00,,,-99.99,,2013-02-20 01:21:00,
2013-02-19 20:32:00,28.0,13.0,-100.00,NNE,30,9.0,21.0,54,0.00,,,-99.99,,2013-02-20 01:32:00,
2013-02-19 20:42:00,28.0,13.0,-100.00,NNE,30,9.0,21.0,54,0.00,,,-99.99,,2013-02-20 01:42:00,
2013-02-19 20:52:00,27.0,13.0,-100.00,North,0,6.0,17.0,53,0.00,,,-99.99,,2013-02-20 01:52:00,
2013-02-19 21:02:00,27.0,13.0,-100.00,NNE,25,5.0,17.0,54,0.00,,,-99.99,,2013-02-20 02:02:00,
2013-02-19 21:11:00,27.0,13.0,-100.00,North,0,6.0,12.0,55,0.00,,,-99.99,,2013-02-20 02:11:00,
2013-02-19 21:22:00,27.0,13.0,-100.00,North,0,9.0,16.0,56,0.00,,,-99.99,,2013-02-20 02:22:00,
2013-02-19 21:32:00,27.0,13.0,-100.00,North,0,9.0,16.0,56,0.00,,,-99.99,,2013-02-20 02:32:00,
2013-02-19 21:42:00,27.0,15.0,-100.00,NNE,25,9.0,18.0,61,0.00,,,-99.99,,2013-02-20 02:42:00,
2013-02-19 21:52:00,25.0,17.0,-100.00,North,0,6.0,17.0,70,0.00,,,-99.99,,2013-02-20 02:52:00,
2013-02-19 22:02:00,26.0,16.0,-100.00,NE,50,7.0,13.0,66,0.00,,,-99.99,,2013-02-20 03:02:00,
2013-02-19 22:12:00,26.0,15.0,-100.00,North,10,5.0,12.0,63,0.00,,,-99.99,,2013-02-20 03:12:00,
2013-02-19 22:22:00,26.0,15.0,-100.00,North,10,5.0,12.0,63,0.00,,,-99.99,,2013-02-20 03:22:00,
2013-02-19 22:32:00,26.0,15.0,-100.00,North,10,5.0,12.0,63,0.00,,,-99.99,,2013-02-20 03:32:00,
2013-02-19 22:42:00,26.0,13.0,-100.00,North,0,9.0,18.0,58,0.00,,,-99.99,,2013-02-20 03:42:00,
2013-02-19 22:52:00,26.0,13.0,-100.00,NNE,15,6.0,14.0,58,0.00,,,-99.99,,2013-02-20 03:52:00,
2013-02-19 23:01:00,26.0,14.0,-100.00,NNE,20,9.0,16.0,59,0.00,,,-99.99,,2013-02-20 04:01:00,
2013-02-19 23:11:00,26.0,13.0,-100.00,North,5,7.0,16.0,59,0.00,,,-99.99,,2013-02-20 04:11:00,
2013-02-19 23:21:00,26.0,14.0,-100.00,North,5,9.0,15.0,60,0.00,,,-99.99,,2013-02-20 04:21:00,
2013-02-19 23:32:00,26.0,15.0,-100.00,NNE,25,6.0,10.0,61,0.00,,,-99.99,,2013-02-20 04:32:00,
2013-02-19 23:42:00,26.0,13.0,-100.00,NNE,20,6.0,14.0,59,0.00,,,-99.99,,2013-02-20 04:42:00,
2013-02-19 23:52:00,26.0,14.0,-100.00,NE,40,7.0,16.0,60,0.00,,,-99.99,,2013-02-20 04:52:00,